This demonstration page uses our WeatherBlox Daily Observations layout. Learn more.

Left ArrowRight Arrow

30.21309, -93.2044

Hourly Observations for July 28, 2019

Temp ( °F °C ) Dew Point ( °F °C ) Humidity (%) Winds ( mph kmh ) Pressure ( in mb ) Visibility ( mi km ) Precip ( " mm )
12:15 am 00:15 Clear with Rain 78 25.5 76 24.7 95 95 SE 5 7 30.13 1020 10 16 0.00 0.00
12:35 am 00:35 Clear 77 24.8 75 24.1 96 96 SE 3 6 30.13 1020 10 16 0.00 0.00
12:55 am 00:55 Clear 77 25 76 24.5 97 97 E 5 7 30.12 1020 10 16 0.00 0.00
1:15 am 01:15 Partly Cloudy 77 24.8 76 24.3 97 97 E 6 9 30.12 1020 10 16 0.00 0.00
1:35 am 01:35 Mostly Cloudy 77 25 76 24.5 97 97 E 5 7 30.12 1020 10 16 0.00 0.00
1:55 am 01:55 Partly Cloudy 76 24.5 75 24.1 98 98 E 6 9 30.12 1020 10 16 0.00 0.00
2:15 am 02:15 Clear 76 24.5 75 24 97 97 E 3 6 30.11 1020 10 16 0.00 0.00
2:35 am 02:35 Clear 76 24.5 75 24.1 98 98 ESE 5 7 30.11 1020 10 16 0.00 0.00
2:55 am 02:55 Partly Cloudy 76 24.5 75 24 97 97 Calm 30.11 1020 10 16 0.00 0.00
3:15 am 03:15 Mostly Cloudy 76 24.6 76 24.3 98 98 E 5 7 30.12 1020 10 16 0.00 0.00
3:35 am 03:35 Cloudy 76 24.7 76 24.3 98 98 E 5 7 30.11 1020 10 16 0.00 0.00
3:55 am 03:55 Mostly Cloudy 76 24.5 75 24.1 98 98 E 6 9 30.11 1020 7 11 0.00 0.00
4:15 am 04:15 Mostly Cloudy 76 24.3 75 24 98 98 ENE 3 6 30.11 1020 7 11 0.00 0.00
4:35 am 04:35 Partly Cloudy 76 24.2 75 24 99 99 E 6 9 30.11 1020 7 11 0.00 0.00
4:55 am 04:55 Clear 76 24.2 75 24 99 99 E 6 9 30.12 1020 7 11 0.00 0.00
5:15 am 05:15 Partly Cloudy 76 24.2 75 24 99 99 E 5 7 30.13 1020 10 16 0.00 0.00
5:35 am 05:35 Mostly Cloudy 76 24.2 75 24 99 99 E 3 6 30.13 1020 10 16 0.00 0.00
6:00 am 06:00 Mostly Cloudy 75 24 75 24 100 100 Calm 30.13 1020 10 16 0.00 0.00
6:50 am 06:50 Mostly Cloudy with Light Rain 77 25 75 24 94 94 Calm 30.15 1021 10 16 0.00 0.00
7:50 am 07:50 Mostly Cloudy 79 26 77 25 94 94 Calm 30.15 1021 10 16 0.00 0.00
8:50 am 08:50 Mostly Cloudy 81 27 77 25 89 89 Calm 30.17 1022 10 16 0.00 0.00
9:50 am 09:50 Mostly Cloudy with Showers Nearby 82 28 77 25 84 84 ESE 6 9 30.16 1021 10 16 0.00 0.00
11:50 am 11:50 Mostly Cloudy 75 24 72 22 89 89 ESE 5 7 30.17 1022 10 16 0.00 0.00
12:50 pm 12:50 Mostly Sunny 79 26 73 23 84 84 E 9 15 30.15 1021 10 16 0.00 0.00
1:55 pm 13:55 Mostly Sunny 84 29 75 24 74 74 SSW 7 11 30.12 1020 10 16 0.00 0.00
2:45 pm 14:45 Partly Cloudy 86 30 73 23 66 66 Calm 30.11 1020 10 16 0.00 0.00
3:55 pm 15:55 Partly Cloudy with Showers 84 29 75 24 74 74 SSE 12 19 30.09 1019 7 11 0.00 0.00
4:53 pm 16:53 Mostly Cloudy 81 27 73 23 79 79 ESE 17 28 30.09 1019 7 11 0.00 0.00
5:45 pm 17:45 Mostly Cloudy with Thunderstorms 77 25 73 23 89 89 E 12 19 30.08 1019 7 11 0.00 0.00
6:50 pm 18:50 Mostly Cloudy with Thunderstorms 73 23 72 22 94 94 SSE 12 19 30.09 1019 7 11 0.00 0.00
8:55 pm 20:55 Mostly Clear 73 23 72 22 94 94 Calm 30.07 1018 10 16 0.00 0.00
9:55 pm 21:55 Mostly Clear 73 23 72 22 94 94 E 12 19 30.08 1019 10 16 0.00 0.00
10:15 pm 22:15 Clear with Rain 73 23 72 22 94 94 E 10 17 30.08 1019 10 16 0.00 0.00
10:35 pm 22:35 Partly Cloudy with Rain 73 22.7 72 22.1 96 96 E 10 17 30.09 1019 10 16 0.00 0.00
10:55 pm 22:55 Cloudy with Rain 73 23 72 22.3 96 96 E 12 19 30.10 1019 10 16 0.00 0.00
11:15 pm 23:15 Mostly Cloudy with Heavy Rain 73 23 72 22.2 95 95 E 7 11 30.10 1019 10 16 0.00 0.00
11:35 pm 23:35 Partly Cloudy with Heavy Rain 73 23 72 22.1 95 95 E 9 15 30.09 1019 10 16 0.00 0.00
11:55 pm 23:55 Clear with Rain 73 23 72 22.2 95 95 E 3 6 30.08 1019 10 16 0.00 0.00

Powered by AerisWeather